NOAA 16 DEB, 41134

Orbit data source: Space-Track

NOAA 16 DEB, 41134 is space debris in SSO originally from a launch on Thu, 21 Sep 2000 UTC launched from the Air Force Western Test Range (AFWTR). Debris objects in space refer to the collection of defunct objects orbiting the Earth. Examples of debris include non-operational satellites, rocket bodies, and fragments generated from explosions, collisions, or faulty payload assembly.

Loading next visibility...
Identifier
41134, 2000-055BR
Orbit
SSO
Country
Flag of USUS
Related business
Manufacturer
Unknown
Mission
Spacecraft
Bus & Motor
Unknown
Mass
Unknown
Launch date (UTC)
2000-09-21 (26 years ago)
Launch vehicle
Unknown
Launch site
Air Force Western Test Range (AFWTR)
Object type
Payload
Rocket body
Debris
Shape & HBR
Unknown shape, 0.1 m
Radar Cross Section
Small (<0.1 m²)

Expand to show TLE details & history
Last TLE update: 12 hours ago

TLE from 12 hours ago
0 NOAA 16 DEB
1 41134U 00055BR  26236.06986603  .00001198  00000-0  60993-3 0  9999
2 41134  98.6162 269.2836 0025276 306.2770  53.6071 14.17504885551310
Epoch: 2026-08-24T01:40Z
TLE epoch observation values (Epoch: 2026-08-24T01:40:36.424Z)
Latitude
-0.00001°
Longitude
-88.22502°
Altitude
825.93 km
Speed
7.446 km/s
True Right ascension
17h 57m 08s
True Declination
0° 00' 00"
Sunlit
Object was in daylight at epoch
Visualization orbit readout
Latitude
Unknown
Longitude
Unknown
Altitude
Unknown
Speed
Unknown
Apparent Right ascension
Unknown
Apparent Declination
Unknown
Sunlit
N/A
Visualization observer readout
Local Sidereal Time
05:21:12
Azimuth
Unknown
Elevation
Unknown
Doppler factor
Unknown
Orbital elements
Apogee altitude
849.183 km
Perigee altitude
812.739 km
Semi-major axis
7,209.098 km
Eccentricity
0.00253
Inclination
98.6162°
RAAN
269.2836°
Arg. of periapsis
306.277°
True anomaly
53.84069°
Mean anomaly
53.6071°
Eccentric anomaly
53.72385°
Mean motion
3.54586 °/min
Orbital period
101.53 mins
BSTAR
0.00060993
Loading maneuver chart data...
Computing Atmospheric mass density...
Loading historical data...
Loading historical data...
Loading historical data...
Loading historical data...
Loading historical data...
Loading historical data...
Loading historical data...

Documentation

Showing up to 5 results
|